CW2551 Weather Reports


Display with metric or nautical units.
time (UTC)temp
F
wind
direction
speed
MPH
gust
MPH
rain 1hr
in
rain 24hr
in
rain mn
in
humidity
%
barometer
mb
20260902070604 61 128 0.0 0.0 0.00 0.00 0.00 72 1011.8
20260902070104 61 125 0.0 0.0 0.00 0.00 0.00 71 1011.8
20260902070021 61 125 0.0 0.0 0.00 0.00 0.00 71 1011.8
20260902065603 61 125 0.0 0.0 0.00 0.00 0.00 71 1011.8
20260902065022 61 125 0.0 0.0 0.00 0.00 0.00 72 1011.8
20260902064104 61 125 0.0 0.0 0.00 0.00 0.00 72 1011.8
20260902064022 61 126 0.0 0.0 0.00 0.00 0.00 73 1011.7
20260902063604 61 126 0.0 0.0 0.00 0.00 0.00 73 1011.7
20260902063104 61 128 0.0 0.0 0.00 0.00 0.00 73 1011.7
20260902063022 61 147 0.0 0.0 0.00 0.00 0.00 74 1011.8
20260902062604 61 147 0.0 0.0 0.00 0.00 0.00 74 1011.8
20260902062104 61 148 0.0 0.0 0.00 0.00 0.00 74 1011.8
20260902062023 61 142 1.0 3.0 0.00 0.00 0.00 74 1011.8
20260902060603 61 126 0.0 0.0 0.00 0.00 0.00 74 1011.9
20260902060104 62 132 0.0 0.0 0.00 0.00 0.00 74 1011.8
20260902060022 62 141 1.0 7.0 0.00 0.00 0.00 74 1011.8
20260902055604 62 141 1.0 7.0 0.00 0.00 0.00 74 1011.8
20260902055103 62 137 0.0 3.0 0.00 0.00 0.00 74 1011.9
20260902055022 62 151 0.0 2.0 0.00 0.00 0.00 74 1012.1
20260902054604 62 151 0.0 2.0 0.00 0.00 0.00 74 1012.1
20260902054104 62 125 0.0 0.0 0.00 0.00 0.00 73 1012.1
20260902054023 62 124 0.0 0.0 0.00 0.00 0.00 73 1012.1
20260902053022 62 139 0.0 0.0 0.00 0.00 0.00 74 1012.1
20260902052604 62 139 0.0 0.0 0.00 0.00 0.00 74 1012.1
20260902052022 62 149 0.0 0.0 0.00 0.00 0.00 74 1012.2
20260902051604 62 149 0.0 0.0 0.00 0.00 0.00 74 1012.2
20260902051104 62 151 0.0 0.0 0.00 0.00 0.00 74 1012.1
20260902051022 62 139 0.0 0.0 0.00 0.00 0.00 74 1012.1
20260902050604 62 139 0.0 0.0 0.00 0.00 0.00 74 1012.1
20260902050104 62 126 0.0 0.0 0.00 0.00 0.00 74 1012.0
20260902045104 63 126 0.0 0.0 0.00 0.00 0.00 74 1012.1
20260902044104 63 126 0.0 0.0 0.00 0.00 0.00 73 1012.1
20260902043604 63 126 0.0 0.0 0.00 0.00 0.00 73 1012.1
20260902043103 63 126 0.0 0.0 0.00 0.00 0.00 74 1012.1
20260902043023 63 126 0.0 0.0 0.00 0.00 0.00 74 1012.1
20260902042603 63 126 0.0 0.0 0.00 0.00 0.00 74 1012.1
20260902042104 63 126 0.0 0.0 0.00 0.00 0.00 74 1012.0
20260902042021 63 133 0.0 0.0 0.00 0.00 0.00 73 1011.8
20260902041104 63 137 0.0 0.0 0.00 0.00 0.00 74 1011.9
20260902041023 63 137 0.0 0.0 0.00 0.00 0.00 74 1011.7
20260902040104 63 147 0.0 0.0 0.00 0.00 0.00 73 1011.7
20260902040022 63 156 0.0 0.0 0.00 0.00 0.00 73 1011.7
20260902035604 63 156 0.0 0.0 0.00 0.00 0.00 73 1011.7
20260902035104 63 130 0.0 0.0 0.00 0.00 0.00 72 1011.7
20260902035022 64 146 0.0 0.0 0.00 0.00 0.00 73 1011.6
20260902034603 64 146 0.0 0.0 0.00 0.00 0.00 73 1011.6
20260902034103 64 130 0.0 0.0 0.00 0.00 0.00 72 1011.4
20260902033604 64 141 0.0 0.0 0.00 0.00 0.00 71 1011.3
20260902033104 64 120 0.0 0.0 0.00 0.00 0.00 70 1011.3
20260902033022 65 123 0.0 0.0 0.00 0.00 0.00 70 1011.2
20260902032604 65 123 0.0 0.0 0.00 0.00 0.00 70 1011.2
20260902032104 65 129 0.0 0.0 0.00 0.00 0.00 68 1011.1
20260902032023 65 98 0.0 0.0 0.00 0.00 0.00 67 1011.1
20260902031604 65 98 0.0 0.0 0.00 0.00 0.00 67 1011.1
20260902031023 66 122 1.0 3.0 0.00 0.00 0.00 64 1010.8
20260902030604 66 122 1.0 3.0 0.00 0.00 0.00 64 1010.8
20260902030022 66 224 0.0 0.0 0.00 0.00 0.00 61 1010.7
20260902025604 66 224 0.0 0.0 0.00 0.00 0.00 61 1010.7
20260902025104 66 216 0.0 0.0 0.00 0.00 0.00 59 1010.6
20260902024103 67 237 1.0 5.0 0.00 0.00 0.00 58 1010.5
20260902024023 67 221 0.0 2.0 0.00 0.00 0.00 58 1010.5
20260902023604 67 221 0.0 2.0 0.00 0.00 0.00 58 1010.5
20260902023104 67 222 1.0 5.0 0.00 0.00 0.00 57 1010.5
20260902022604 67 224 1.0 9.0 0.00 0.00 0.00 57 1010.4
20260902022104 67 223 2.0 6.0 0.00 0.00 0.00 57 1010.3
20260902021604 68 227 2.0 5.0 0.00 0.00 0.00 56 1010.2
20260902021103 68 231 0.0 6.0 0.00 0.00 0.00 56 1010.1
20260902021023 68 226 0.0 3.0 0.00 0.00 0.00 57 1010.2
20260902020604 68 226 0.0 3.0 0.00 0.00 0.00 57 1010.2
20260902020104 68 225 0.0 3.0 0.00 0.00 0.00 57 1010.0
20260902020025 68 225 0.0 3.0 0.00 0.00 0.00 56 1010.0
20260902015604 68 225 0.0 3.0 0.00 0.00 0.00 56 1010.0
20260902015103 68 222 1.0 5.0 0.00 0.00 0.00 56 1010.1
20260902015022 68 218 0.0 2.0 0.00 0.00 0.00 56 1010.0
20260902014604 68 218 0.0 2.0 0.00 0.00 0.00 56 1010.0
20260902014104 68 215 0.0 3.0 0.00 0.00 0.00 55 1010.0
20260902014023 69 216 0.0 7.0 0.00 0.00 0.00 55 1009.9
20260902013604 69 216 0.0 7.0 0.00 0.00 0.00 55 1009.9
20260902013104 69 231 0.0 3.0 0.00 0.00 0.00 54 1009.8
20260902013025 69 222 1.0 9.0 0.00 0.00 0.00 54 1009.8
20260902012604 69 222 1.0 9.0 0.00 0.00 0.00 54 1009.8
20260902012023 69 213 0.0 5.0 0.00 0.00 0.00 53 1009.6
20260902011104 69 225 1.0 8.0 0.00 0.00 0.00 52 1009.6
20260902011023 70 235 2.0 8.0 0.00 0.00 0.00 52 1009.6
20260902010604 70 235 2.0 8.0 0.00 0.00 0.00 52 1009.6
20260902010105 70 220 1.0 7.0 0.00 0.00 0.00 51 1009.6
20260902010024 71 221 0.0 2.0 0.00 0.00 0.00 51 1009.5
20260902005604 71 221 0.0 2.0 0.00 0.00 0.00 51 1009.5
20260902005104 71 244 0.0 0.0 0.00 0.00 0.00 50 1009.4
20260902005022 71 237 0.0 3.0 0.00 0.00 0.00 50 1009.3
20260902004604 71 237 0.0 3.0 0.00 0.00 0.00 50 1009.3
20260902004103 71 240 0.0 3.0 0.00 0.00 0.00 50 1009.2
20260902004022 71 246 0.0 5.0 0.00 0.00 0.00 50 1009.1
20260902003604 71 246 0.0 5.0 0.00 0.00 0.00 50 1009.1
20260902003104 71 223 0.0 3.0 0.00 0.00 0.00 50 1009.2
20260902003025 72 246 1.0 3.0 0.00 0.00 0.00 50 1009.2
20260902002604 72 246 1.0 3.0 0.00 0.00 0.00 50 1009.2
20260902002103 72 242 0.0 2.0 0.00 0.00 0.00 49 1009.1
20260902002022 72 257 1.0 3.0 0.00 0.00 0.00 49 1009.1
20260902001104 72 262 0.0 1.0 0.00 0.00 0.00 49 1009.1
20260902000604 72 275 0.0 3.0 0.00 0.00 0.00 50 1009.0
20260902000103 72 232 0.0 3.0 0.00 0.00 0.00 50 1009.0
20260902000024 72 251 0.0 0.0 0.00 0.00 0.00 50 1008.9
20260901235604 72 251 0.0 0.0 0.00 0.00 0.00 50 1008.9
20260901235023 72 9 0.0 5.0 0.00 0.00 0.00 48 1008.7
20260901234604 72 9 0.0 5.0 0.00 0.00 0.00 48 1008.7
20260901234104 73 298 0.0 3.0 0.00 0.00 0.00 49 1008.8
20260901234022 73 273 0.0 2.0 0.00 0.00 0.00 49 1008.7
20260901233603 73 273 0.0 2.0 0.00 0.00 0.00 49 1008.7
20260901233104 73 276 0.0 2.0 0.00 0.00 0.00 49 1008.8
20260901233024 73 211 0.0 3.0 0.00 0.00 0.00 49 1008.8
20260901232604 73 211 0.0 3.0 0.00 0.00 0.00 49 1008.8
20260901232104 73 238 0.0 3.0 0.00 0.00 0.00 49 1008.9
20260901232022 73 259 1.0 5.0 0.00 0.00 0.00 49 1008.8
20260901231104 73 297 0.0 3.0 0.00 0.00 0.00 49 1008.9
20260901231022 72 256 0.0 1.0 0.00 0.00 0.00 49 1008.8
20260901230024 72 296 0.0 3.0 0.00 0.00 0.00 49 1008.9
20260901225604 72 296 0.0 3.0 0.00 0.00 0.00 49 1008.9
20260901225023 73 218 0.0 3.0 0.00 0.00 0.00 48 1008.8
20260901224603 73 218 0.0 3.0 0.00 0.00 0.00 48 1008.8
20260901224023 73 290 0.0 2.0 0.00 0.00 0.00 47 1008.7
20260901223025 74 290 1.0 6.0 0.00 0.00 0.00 46 1008.8
20260901222103 74 331 1.0 6.0 0.00 0.00 0.00 46 1008.8
20260901222022 74 312 2.0 5.0 0.00 0.00 0.00 46 1008.7
20260901221604 74 312 2.0 5.0 0.00 0.00 0.00 46 1008.7
20260901221104 75 0 1.0 5.0 0.00 0.00 0.00 46 1008.8
20260901221022 75 350 5.0 10.0 0.00 0.00 0.00 45 1008.7
20260901220604 75 350 5.0 10.0 0.00 0.00 0.00 45 1008.7
20260901215604 75 351 2.0 6.0 0.00 0.00 0.00 44 1008.7
20260901215104 75 358 0.0 8.0 0.00 0.00 0.00 45 1008.8
20260901215022 75 334 1.0 6.0 0.00 0.00 0.00 45 1008.8
20260901214604 75 334 1.0 6.0 0.00 0.00 0.00 45 1008.8
20260901214104 75 350 1.0 7.0 0.00 0.00 0.00 45 1008.6
20260901214023 75 2 5.0 12.0 0.00 0.00 0.00 44 1008.7
20260901213603 75 2 5.0 12.0 0.00 0.00 0.00 44 1008.7
20260901213104 75 342 2.0 8.0 0.00 0.00 0.00 45 1008.8
20260901213025 75 333 2.0 8.0 0.00 0.00 0.00 45 1008.7
20260901212603 75 333 2.0 8.0 0.00 0.00 0.00 45 1008.7
20260901212104 75 341 1.0 10.0 0.00 0.00 0.00 45 1008.7
20260901212022 75 0 3.0 10.0 0.00 0.00 0.00 44 1008.8
20260901211604 75 0 3.0 10.0 0.00 0.00 0.00 44 1008.8
20260901210604 75 7 1.0 3.0 0.00 0.00 0.00 46 1008.7
20260901210104 75 3 1.0 6.0 0.00 0.00 0.00 44 1008.7
20260901210024 74 23 1.0 8.0 0.00 0.00 0.00 45 1008.7
20260901205604 74 23 1.0 8.0 0.00 0.00 0.00 45 1008.7
20260901205104 74 359 2.0 8.0 0.00 0.00 0.00 45 1008.8
20260901205022 74 303 0.0 6.0 0.00 0.00 0.00 47 1008.8
20260901204604 74 303 0.0 6.0 0.00 0.00 0.00 47 1008.8
20260901204022 74 225 0.0 3.0 0.00 0.00 0.00 46 1008.8
20260901203604 74 225 0.0 3.0 0.00 0.00 0.00 46 1008.8
20260901203024 74 344 2.0 9.0 0.00 0.00 0.00 46 1008.9
20260901202604 74 344 2.0 9.0 0.00 0.00 0.00 46 1008.9
20260901202103 74 332 2.0 5.0 0.00 0.00 0.00 46 1008.9
20260901202021 75 1 2.0 9.0 0.00 0.00 0.00 44 1009.0
20260901201603 75 1 2.0 9.0 0.00 0.00 0.00 44 1009.0
20260901201103 75 355 3.0 9.0 0.00 0.00 0.00 45 1009.0
20260901201022 74 8 1.0 7.0 0.00 0.00 0.00 46 1009.2
20260901200604 74 8 1.0 7.0 0.00 0.00 0.00 46 1009.2
20260901195604 74 5 2.0 7.0 0.00 0.00 0.00 47 1009.3
20260901195104 73 311 2.0 7.0 0.00 0.00 0.00 45 1009.4
20260901195021 73 348 1.0 3.0 0.00 0.00 0.00 48 1009.5
20260901194604 73 348 1.0 3.0 0.00 0.00 0.00 48 1009.5
20260901194104 73 261 0.0 5.0 0.00 0.00 0.00 48 1009.6
20260901194022 74 6 5.0 9.0 0.00 0.00 0.00 44 1009.5
20260901193104 73 8 2.0 5.0 0.00 0.00 0.00 47 1009.6
20260901193024 72 294 0.0 1.0 0.00 0.00 0.00 47 1009.8
20260901192603 72 294 0.0 1.0 0.00 0.00 0.00 47 1009.8
20260901192022 71 359 2.0 6.0 0.00 0.00 0.00 48 1009.9
20260901191604 71 359 2.0 6.0 0.00 0.00 0.00 48 1009.9
20260901191022 71 353 0.0 0.0 0.00 0.00 0.00 49 1010.1
20260901190604 71 353 0.0 0.0 0.00 0.00 0.00 49 1010.1
20260901190104 70 358 0.0 2.0 0.00 0.00 0.00 49 1010.1
20260901190024 70 333 1.0 3.0 0.00 0.00 0.00 52 1010.2
20260901185022 70 290 0.0 3.0 0.00 0.00 0.00 52 1010.2
20260901184104 70 2 0.0 3.0 0.00 0.00 0.00 51 1010.3
20260901184022 68 54 0.0 2.0 0.00 0.00 0.00 53 1010.3
20260901183604 68 54 0.0 2.0 0.00 0.00 0.00 53 1010.3
20260901183104 68 332 0.0 5.0 0.00 0.00 0.00 53 1010.4
20260901183025 69 337 0.0 0.0 0.00 0.00 0.00 54 1010.5
20260901182604 69 337 0.0 0.0 0.00 0.00 0.00 54 1010.5
20260901182103 69 4 0.0 0.0 0.00 0.00 0.00 52 1010.4
20260901182022 68 333 0.0 0.0 0.00 0.00 0.00 52 1010.4
20260901181604 68 333 0.0 0.0 0.00 0.00 0.00 52 1010.4
20260901181104 68 334 0.0 0.0 0.00 0.00 0.00 52 1010.5
20260901181022 67 182 0.0 2.0 0.00 0.00 0.00 55 1010.5
20260901180104 68 116 0.0 3.0 0.00 0.00 0.00 51 1010.7
20260901180024 67 36 0.0 2.0 0.00 0.00 0.00 54 1010.7
20260901175604 67 36 0.0 2.0 0.00 0.00 0.00 54 1010.7
20260901175104 67 32 0.0 0.0 0.00 0.00 0.00 52 1010.8
20260901175023 67 88 0.0 2.0 0.00 0.00 0.00 54 1010.9
20260901174603 67 88 0.0 2.0 0.00 0.00 0.00 54 1010.9
20260901174103 68 37 0.0 2.0 0.00 0.00 0.00 53 1010.9
20260901173604 68 345 0.0 0.0 0.00 0.00 0.00 53 1011.0
20260901173104 68 359 0.0 0.0 0.00 0.00 0.00 53 1010.9
20260901172103 68 69 1.0 2.0 0.00 0.00 0.00 52 1010.9
20260901172022 68 49 0.0 0.0 0.00 0.00 0.00 53 1011.1
20260901171603 68 49 0.0 0.0 0.00 0.00 0.00 53 1011.1
20260901171104 67 39 0.0 0.0 0.00 0.00 0.00 54 1011.0
20260901171022 67 107 0.0 0.0 0.00 0.00 0.00 53 1011.0
20260901170604 67 107 0.0 0.0 0.00 0.00 0.00 53 1011.0
20260901170104 67 60 0.0 0.0 0.00 0.00 0.00 53 1011.1
20260901170024 67 23 0.0 0.0 0.00 0.00 0.00 53 1011.0
20260901165604 67 23 0.0 0.0 0.00 0.00 0.00 53 1011.0
20260901165104 66 9 0.0 0.0 0.00 0.00 0.00 55 1011.0
20260901165022 66 45 0.0 0.0 0.00 0.00 0.00 55 1011.2
20260901164603 66 45 0.0 0.0 0.00 0.00 0.00 55 1011.2
20260901164104 65 43 0.0 0.0 0.00 0.00 0.00 55 1011.1
20260901164023 65 354 0.0 0.0 0.00 0.00 0.00 55 1011.3
20260901163604 65 354 0.0 0.0 0.00 0.00 0.00 55 1011.3
20260901163024 65 69 0.0 0.0 0.00 0.00 0.00 56 1011.3
20260901162604 65 69 0.0 0.0 0.00 0.00 0.00 56 1011.3
20260901162104 64 57 0.0 0.0 0.00 0.00 0.00 56 1011.3
20260901162022 64 56 0.0 0.0 0.00 0.00 0.00 57 1011.2
20260901161604 64 56 0.0 0.0 0.00 0.00 0.00 57 1011.2
20260901161104 64 84 0.0 0.0 0.00 0.00 0.00 57 1011.3
20260901160604 64 92 0.0 0.0 0.00 0.00 0.00 57 1011.2
20260901160103 63 92 0.0 0.0 0.00 0.00 0.00 57 1011.3
20260901160024 63 92 0.0 0.0 0.00 0.00 0.00 58 1011.3
20260901155604 63 92 0.0 0.0 0.00 0.00 0.00 58 1011.3
20260901155104 62 92 0.0 0.0 0.00 0.00 0.00 59 1011.3
20260901155023 61 86 0.0 0.0 0.00 0.00 0.00 60 1011.2
20260901154604 61 86 0.0 0.0 0.00 0.00 0.00 60 1011.2
20260901154104 61 59 0.0 0.0 0.00 0.00 0.00 61 1011.2
20260901154022 60 56 0.0 0.0 0.00 0.00 0.00 62 1011.2
20260901153604 60 56 0.0 0.0 0.00 0.00 0.00 62 1011.2
20260901153104 60 48 0.0 0.0 0.00 0.00 0.00 63 1011.1
20260901153024 59 45 0.0 0.0 0.00 0.00 0.00 63 1011.1
20260901152604 59 45 0.0 0.0 0.00 0.00 0.00 63 1011.1
20260901152103 59 45 0.0 0.0 0.00 0.00 0.00 65 1011.2
20260901152022 58 40 0.0 0.0 0.00 0.00 0.00 66 1011.1
20260901151103 58 36 0.0 0.0 0.00 0.00 0.00 68 1011.1
20260901151022 57 34 0.0 0.0 0.00 0.00 0.00 68 1011.0
20260901150104 56 32 0.0 0.0 0.00 0.00 0.00 68 1010.9
20260901150024 55 32 0.0 0.0 0.00 0.00 0.00 69 1010.8
20260901145604 55 32 0.0 0.0 0.00 0.00 0.00 69 1010.8
20260901145104 54 32 0.0 0.0 0.00 0.00 0.00 71 1010.8
20260901144604 53 32 0.0 0.0 0.00 0.00 0.00 70 1010.7
20260901144104 53 32 0.0 0.0 0.00 0.00 0.00 71 1010.7
20260901144022 52 32 0.0 0.0 0.00 0.00 0.00 72 1010.6
20260901143604 52 32 0.0 0.0 0.00 0.00 0.00 72 1010.6
20260901143104 51 32 0.0 0.0 0.00 0.00 0.00 72 1010.5
20260901143024 51 32 0.0 0.0 0.00 0.00 0.00 73 1010.6
20260901142604 51 32 0.0 0.0 0.00 0.00 0.00 73 1010.6
20260901142022 51 32 0.0 0.0 0.00 0.00 0.00 73 1010.4
20260901141604 51 32 0.0 0.0 0.00 0.00 0.00 73 1010.4
20260901141103 51 32 0.0 0.0 0.00 0.00 0.00 71 1010.3
20260901141022 51 32 0.0 0.0 0.00 0.00 0.00 72 1010.2
20260901140604 51 32 0.0 0.0 0.00 0.00 0.00 72 1010.2
20260901140105 51 32 0.0 0.0 0.00 0.00 0.00 73 1010.2
20260901140024 51 32 0.0 0.0 0.00 0.00 0.00 72 1010.3
20260901135604 51 32 0.0 0.0 0.00 0.00 0.00 72 1010.3
20260901135104 51 32 0.0 0.0 0.00 0.00 0.00 71 1010.2
20260901135022 51 32 0.0 0.0 0.00 0.00 0.00 71 1010.2
20260901134604 51 32 0.0 0.0 0.00 0.00 0.00 71 1010.2
20260901134103 51 32 0.0 0.0 0.00 0.00 0.00 71 1010.0
20260901134023 51 32 0.0 0.0 0.00 0.00 0.00 71 1010.1
20260901133603 51 32 0.0 0.0 0.00 0.00 0.00 71 1010.1
20260901132604 51 32 0.0 0.0 0.00 0.00 0.00 70 1009.8
20260901132103 51 32 0.0 0.0 0.00 0.00 0.00 69 1009.8
20260901132022 52 32 0.0 0.0 0.00 0.00 0.00 68 1009.8
20260901131604 52 32 0.0 0.0 0.00 0.00 0.00 68 1009.8
20260901131103 52 32 0.0 0.0 0.00 0.00 0.00 68 1009.8
20260901131022 52 32 0.0 0.0 0.00 0.00 0.00 67 1009.7
20260901130604 52 32 0.0 0.0 0.00 0.00 0.00 67 1009.7
20260901130104 52 32 0.0 0.0 0.00 0.00 0.00 66 1009.6
20260901130022 52 32 0.0 0.0 0.00 0.00 0.00 66 1009.7
20260901125604 52 32 0.0 0.0 0.00 0.00 0.00 66 1009.7
20260901125104 52 32 0.0 0.0 0.00 0.00 0.00 66 1009.7
20260901125022 52 32 0.0 0.0 0.00 0.00 0.00 65 1009.7
20260901124604 52 32 0.0 0.0 0.00 0.00 0.00 65 1009.7
20260901124104 53 32 0.0 0.0 0.00 0.00 0.00 65 1009.8
20260901124023 53 32 0.0 0.0 0.00 0.00 0.00 65 1009.7
20260901123605 53 32 0.0 0.0 0.00 0.00 0.00 65 1009.7
20260901123104 53 32 0.0 0.0 0.00 0.00 0.00 64 1009.7
20260901123022 53 32 0.0 0.0 0.00 0.00 0.00 64 1009.6
20260901122604 53 32 0.0 0.0 0.00 0.00 0.00 64 1009.6
20260901122104 53 32 0.0 0.0 0.00 0.00 0.00 64 1009.7
20260901122022 53 32 0.0 0.0 0.00 0.00 0.00 64 1009.6
20260901121103 53 32 0.0 0.0 0.00 0.00 0.00 63 1009.6
20260901121022 54 32 0.0 0.0 0.00 0.00 0.00 64 1009.6
20260901120104 54 32 0.0 0.0 0.00 0.00 0.00 63 1009.6
20260901120022 54 32 0.0 0.0 0.00 0.00 0.00 64 1009.6
20260901115104 54 32 0.0 0.0 0.00 0.00 0.00 63 1009.5
20260901115022 54 32 0.0 0.0 0.00 0.00 0.00 63 1009.6
20260901114604 54 32 0.0 0.0 0.00 0.00 0.00 63 1009.6
20260901114103 54 32 0.0 0.0 0.00 0.00 0.00 63 1009.5
20260901114022 54 32 0.0 0.0 0.00 0.00 0.00 62 1009.4
20260901113604 54 32 0.0 0.0 0.00 0.00 0.00 62 1009.4
20260901113103 54 32 0.0 0.0 0.00 0.00 0.00 62 1009.4
20260901113022 54 32 0.0 0.0 0.00 0.00 0.00 63 1009.4
20260901112104 55 32 0.0 0.0 0.00 0.00 0.00 62 1009.3
20260901112022 55 32 0.0 0.0 0.00 0.00 0.00 62 1009.4
20260901111104 55 32 0.0 0.0 0.00 0.00 0.00 62 1009.3
20260901111022 55 32 0.0 0.0 0.00 0.00 0.00 62 1009.3
20260901110604 55 32 0.0 0.0 0.00 0.00 0.00 62 1009.3
20260901110104 55 32 0.0 0.0 0.00 0.00 0.00 62 1009.2
20260901105604 55 32 0.0 0.0 0.00 0.00 0.00 61 1009.2
20260901105104 55 32 0.0 0.0 0.00 0.00 0.00 60 1009.2
20260901105022 55 32 0.0 0.0 0.00 0.00 0.00 60 1009.2
20260901104604 55 32 0.0 0.0 0.00 0.00 0.00 60 1009.2
20260901104104 55 32 0.0 0.0 0.00 0.00 0.00 61 1009.0
20260901103604 55 32 0.0 0.0 0.00 0.00 0.00 60 1009.1
20260901103103 55 32 0.0 0.0 0.00 0.00 0.00 61 1009.1
20260901103022 55 32 0.0 0.0 0.00 0.00 0.00 61 1009.1
20260901102603 55 32 0.0 0.0 0.00 0.00 0.00 61 1009.1
20260901102104 56 32 0.0 0.0 0.00 0.00 0.00 60 1009.0
20260901102021 56 32 0.0 0.0 0.00 0.00 0.00 60 1009.0
20260901101604 56 32 0.0 0.0 0.00 0.00 0.00 60 1009.0
20260901101022 56 32 0.0 0.0 0.00 0.00 0.00 59 1009.0
20260901095104 56 32 0.0 0.0 0.00 0.00 0.00 58 1008.9
20260901095022 56 32 0.0 0.0 0.00 0.00 0.00 58 1009.0
20260901094604 56 32 0.0 0.0 0.00 0.00 0.00 58 1009.0
20260901094103 56 32 0.0 0.0 0.00 0.00 0.00 58 1009.0
20260901094023 57 32 0.0 0.0 0.00 0.00 0.00 58 1009.0
20260901093022 57 32 0.0 0.0 0.00 0.00 0.00 58 1009.0
20260901092604 57 32 0.0 0.0 0.00 0.00 0.00 58 1009.0
20260901092103 57 32 0.0 0.0 0.00 0.00 0.00 59 1009.0
20260901092021 57 32 0.0 0.0 0.00 0.00 0.00 58 1009.0
20260901091603 57 32 0.0 0.0 0.00 0.00 0.00 58 1009.0
20260901091104 57 32 0.0 0.0 0.00 0.00 0.00 56 1009.0
20260901091022 58 32 0.0 0.0 0.00 0.00 0.00 56 1009.0
20260901090604 58 32 0.0 0.0 0.00 0.00 0.00 56 1009.0
20260901090103 58 32 0.0 0.0 0.00 0.00 0.00 56 1009.0
20260901090021 58 32 0.0 0.0 0.00 0.00 0.00 56 1009.0
20260901085604 58 32 0.0 0.0 0.00 0.00 0.00 56 1009.0
20260901085104 58 32 0.0 0.0 0.00 0.00 0.00 55 1009.0
20260901085022 58 32 0.0 0.0 0.00 0.00 0.00 55 1009.1
20260901084604 58 32 0.0 0.0 0.00 0.00 0.00 55 1009.1
20260901084104 59 32 0.0 0.0 0.00 0.00 0.00 56 1009.0
20260901084022 59 32 0.0 0.0 0.00 0.00 0.00 55 1009.1
20260901083604 59 32 0.0 0.0 0.00 0.00 0.00 55 1009.1
20260901083104 59 32 0.0 0.0 0.00 0.00 0.00 55 1009.0
20260901083022 59 32 0.0 0.0 0.00 0.00 0.00 54 1009.1
20260901082603 59 32 0.0 0.0 0.00 0.00 0.00 54 1009.1
20260901082104 59 32 0.0 0.0 0.00 0.00 0.00 53 1009.2
20260901082022 60 32 0.0 0.0 0.00 0.00 0.00 53 1009.2
20260901081104 60 32 0.0 0.0 0.00 0.00 0.00 52 1009.3
20260901081022 60 32 0.0 0.0 0.00 0.00 0.00 51 1009.2
20260901080604 60 32 0.0 0.0 0.00 0.00 0.00 51 1009.2
20260901080104 60 32 0.0 0.0 0.00 0.00 0.00 52 1009.2
20260901080022 61 32 0.0 0.0 0.00 0.00 0.00 51 1009.1
20260901075604 61 32 0.0 0.0 0.00 0.00 0.00 51 1009.1
20260901075103 61 32 0.0 0.0 0.00 0.00 0.00 50 1009.1
20260901075022 61 32 0.0 0.0 0.00 0.00 0.00 50 1009.1
20260901074104 61 32 0.0 0.0 0.00 0.00 0.00 50 1009.0
20260901074022 62 32 0.0 0.0 0.00 0.00 0.00 49 1009.0
20260901073604 62 32 0.0 0.0 0.00 0.00 0.00 49 1009.0
20260901073104 62 32 0.0 0.0 0.00 0.00 0.00 49 1009.0
20260901072604 62 32 0.0 0.0 0.00 0.00 0.00 50 1009.1
20260901072104 63 32 0.0 0.0 0.00 0.00 0.00 48 1009.0
20260901072022 63 32 0.0 0.0 0.00 0.00 0.00 49 1009.0
20260901071604 63 32 0.0 0.0 0.00 0.00 0.00 49 1009.0
20260901071104 63 32 0.0 0.0 0.00 0.00 0.00 47 1009.1
20260901071028 64 32 0.0 0.0 0.00 0.00 0.00 46 1009.0